Regional Weather Roundup
Issued by NWS

Home | Current Version | Previous Version | Graphics & Text | Print | Product List | Glossary On
Versions: 1 2 3 4 5 6 7 8 9 10 11 12 13 14 15 16 17 18 19 20 21 22 23 24 25 26 27 28 29 30 31 32 33 34 35 36 37 38 39 40 41 42 43 44 45 46 47 48 49 50
224
ASUS43 KLOT 130103
RWRIL

ILLINOIS REGIONAL WEATHER ROUNDUP
NATIONAL WEATHER SERVICE CHICAGO/ROMEOVILLE IL
700 PM CST FRI FEB 12 2016

NOTE: "FAIR" INDICATES FEW OR NO CLOUDS BELOW 12,000 FEET WITH NO
SIGNIFICANT WEATHER AND/OR OBSTRUCTIONS TO VISIBILITY.

* THESE STATIONS ARE NOT UNDER NWS QUALITY CONTROL. THEY ALSO MAY NOT
  REPORT WEATHER SUCH AS PRECIPITATION OR FOG.

ILZ001-002-007-009-015-016-024-130200-
NORTHWEST ILLINOIS

CITY           SKY/WX    TMP DP  RH WIND       PRES   REMARKS
MOLINE         CLEAR     14   0  53 NW23G31   30.45R WCI  -5
STERLING*      CLEAR     16   0  48 NW15G23   30.37R WCI   1
SAVANNA*       CLEAR     14  -1  51 NW14      30.43R WCI  -1
$$

ILZ003-004-008-010-011-017-018-130200-
NORTH CENTRAL ILLINOIS

CITY           SKY/WX    TMP DP  RH WIND       PRES   REMARKS
ROCKFORD       CLEAR     15  -4  42 N18G26    30.38R WCI  -2
FREEPORT*      PTCLDY    13  -4  47 NW17G25   30.39R WCI  -4
ROCHELLE*      PTCLDY    16   0  49 NW18G26   30.36R WCI  -1
DE KALB*       CLEAR     15  -1  48 NW18      30.34R WCI  -2
$$

ILZ005-006-012>014-019>023-130200-
NORTHEAST ILLINOIS

CITY           SKY/WX    TMP DP  RH WIND       PRES   REMARKS
CHICAGO-OHARE  PTCLDY    15  -4  42 NW20G35   30.32R WCI  -2
CHICAGO-MIDWAY PTCLDY    18  -5  36 NW18G29   30.32R WCI   2
AURORA         CLEAR     16  -1  47 N18       30.34R WCI   0
LANSING*       CLEAR     18  -2  41 NW14G25   30.31R WCI   4
WAUKEGAN       CLEAR     11  -5  48 NW14G28   30.32R WCI  -5
DUPAGE AIRPORT CLEAR     15  -4  42 NW23G29   30.32R WCI  -3
WHEELING       CLEAR     14  -4  44 NW21G35   30.34R WCI  -4
MORRIS*        CLEAR     17   5  58 NW15      30.33R WCI   3
NORTHERLY ISL    N/A     18  -1  43 NW14        N/A  WCI   4
$$

LMZ740>746-130200-
SOUTHERN LAKE MICHIGAN

STATION/POSITION SKY/WX   TEMP    WIND        PRES    VSBY  WAVE
                          AIR SEA DIR/SP/G                  HT/PER
                          (F)     (DEG/KT/KT) (MB)    (MI)  (FT/S)
HARRISON CRIB              20     310/ 27/ 32   N/A
BURNHAM HARBOR             18     330/  9/ 22   N/A
CALUMET HARBOR             18                 1024.3R
BURNS HARBOR               20     320/ 23/ 29 1023.7R
MICHIGAN CITY              20     290/ 28/ 34   N/A
$$

ILZ025>027-034>036-040-047-049-050-058-095>099-130200-
WEST-CENTRAL ILLINOIS

CITY           SKY/WX    TMP DP  RH WIND       PRES   REMARKS
QUINCY         CLEAR     17   3  54 NW12      30.47R WCI   4
MACOMB*        CLEAR     17   5  59 NW22G29   30.48R WCI   0
$$

ILZ028>032-037-038-041>044-048-051>054-059>061-130200-
CENTRAL ILLINOIS

CITY           SKY/WX    TMP DP  RH WIND       PRES   REMARKS
BLOOMINGTON    CLEAR     18   4  54 NW20      30.36R WCI   2
DECATUR        CLEAR     22   4  46 NW16G29   30.37R WCI   8
PEORIA         CLEAR     17   0  47 NW13G25   30.42R WCI   4
LACON*         PTCLDY    16   2  53 NW17G24   30.41R WCI   0
LINCOLN*       CLEAR     21   4  47 NW12G22   30.40R WCI   9
SPRINGFIELD    CLEAR     22   7  52 NW18G24   30.41R WCI   7
TAYLORVILLE    NOT AVBL
$$

ILZ033-039-045-046-055>057-062-063-130200-
EAST-CENTRAL ILLINOIS

CITY           SKY/WX    TMP DP  RH WIND       PRES   REMARKS
CHAMPAIGN      CLEAR     20   6  55 NW21G28   30.33R WCI   4
MATTOON        CLEAR     22   8  55 NW21      30.33R WCI   6
$$

ILZ079-100>102-130200-
SOUTHWEST ILLINOIS

CITY           SKY/WX    TMP DP  RH WIND       PRES   REMARKS
BELLEVILLE     CLEAR     26  11  52 NW16G22   30.43R WCI  14
CAHOKIA*       CLEAR     27  13  55 NW12      30.45R WCI  17
SPARTA*        CLEAR     27  16  63 NW5       30.43R WCI  21
$$

ILZ064>066-069>071-074>076-080>082-084>086-088>090-092>094-130200-
SOUTH-CENTRAL ILLINOIS

CITY           SKY/WX    TMP DP  RH WIND       PRES   REMARKS
CARBONDALE     CLEAR     28  16  60 NW12      30.42R WCI  18
CAIRO*         CLEAR     32  25  74 N9        30.39R WCI  24
MARION         CLEAR     30  18  59 NW6       30.42R WCI  24
MT. VERNON     CLEAR     27  12  54 NW3       30.40R
CENTRALIA*     CLEAR     27  17  66 NW14G20   30.40R WCI  15
SALEM*         MOCLDY    27  14  58 NW14G22   30.40R WCI  15
$$

ILZ067-068-072-073-078-083-087-091-130200-
SOUTHEAST ILLINOIS

CITY           SKY/WX    TMP DP  RH WIND       PRES   REMARKS
LAWRENCEVILLE  PTCLDY    25  14  63 NW14      30.35R WCI  13
HARRISBURG*    CLEAR     28  18  66 NW10      30.41R WCI  18
ROBINSON*      CLEAR     24  15  70 W13       30.36R WCI  12
CARMI*         CLEAR     26  17  67 NW13      30.39R WCI  15
$$

ABBREVIATIONS USED IN REMARKS
   TC - TEMPERATURE IN CELSIUS
  WCI - WIND CHILL INDEX
   HX - HEAT INDEX
  VSB - VISIBILITY
$$





USA.gov is the U.S. government's official web portal to all federal, state and local government web resources and services.